Reflectivity
-20 -20 -20 -20 -20 -20 -20 -20 -20 -20 -20 -20 -20 -20 -20 -20 -20 -20 -20 -20 -20 -20 -20 -16 13 9 -12 -20 -20 -20 -20 -20 -20 14 -10 -20 -20 -20 14 -7 -20 -20 -20 -20 -20 -20 -20 -20 -20
-20 -20 -20 -20 -20 -20 -20 -20 -20 -20 -20 -20 -20 -20 -20 -20 -20 -20 -20 -20 -20 -20 -20 -16 17 7 -15 -0 -12 -20 -20 -20 -20 -20 -20 -20 -1 18 17 -1 -20 -20 -20 -20 -20 -20 -20 -20 -20
-20 -20 -20 -20 -20 -20 -20 -20 -20 -20 -20 -20 -20 -20 -20 -20 4 -20 5 -20 -14 -20 -20 5 -7 13 -13 -1 4 -20 -20 -20 -20 -20 6 10 -1 4 -20 -20 -20 -20 -20 -20 -20 -20 -20 -20 -20
-20 -20 -20 -20 -20 -20 -20 -20 -20 -20 -20 -20 -20 -20 -20 -20 -9 -20 -19 -18 -20 -6 -19 13 19 -1 -20 10 2 2 -17 -20 -20 -20 -20 -14 14 15 14 -20 -20 -20 -20 -20 -20 -20 -20 -20 -20
-20 -20 -20 -20 -20 -20 -20 -20 -20 -20 -20 -20 -20 -20 -20 -20 -20 -20 -20 -20 -20 -20 -20 2 19 15 -16 17 13 11 4 -2 -20 -20 -20 -6 10 13 22 -15 -20 -20 -20 -20 -20 -1 3 3 -2
-20 -20 -20 -20 -20 -20 -20 -20 -20 -20 -20 -20 -20 -20 -20 -20 -20 -20 -20 -20 -20 -20 -20 0 13 -11 17 17 17 9 -19 -12 -20 -20 -20 -20 8 -12 14 22 -20 -20 -20 -4 -20 -8 1 -16 -8
-20 -20 -20 -20 -20 -20 -20 -20 -20 -20 -20 -20 -20 -20 -20 -20 -20 -20 -20 -20 -20 -20 -20 -18 2 1 -6 17 17 -14 -20 -8 -20 -20 -20 -20 -20 -20 -19 -11 -20 15 3 -20 -20 8 -20 -8 7
-20 -20 -20 -20 -20 -20 -20 -20 -20 -20 -20 -20 -20 -20 -20 -20 -20 -20 -20 -20 -20 -20 -20 -20 6 8 11 -18 12 10 -20 12 -20 -5 -20 -20 -20 -20 -20 -20 -20 -20 -20 -13 -7 7 -15 -20 -20
-20 -20 -20 -20 -20 -20 -20 -20 -20 -20 -20 -20 -20 -20 -20 -20 -20 -20 -20 -20 -20 -17 -20 -16 -19 11 12 15 7 1 -20 7 -20 -20 -20 -20 -20 -20 -20 -20 -20 -20 -20 10 -12 -20 -20 -20 -20
-20 -20 -20 -20 -20 -20 -20 -20 -20 -20 -20 -20 -20 -20 -20 -20 -20 -20 -20 -20 -20 -20 -20 -6 -1 -13 12 12 11 10 -20 -20 -20 -20 -20 -20 -20 -20 -20 -20 -20 -20 -20 -20 -20 -20 -20 -20 -20
-20 -20 -20 -20 -20 -20 -20 -20 -20 -20 -20 -20 -20 -20 -20 -20 -20 -20 -20 -20 -20 -20 -20 -20 4 7 8 -19 9 9 -20 -20 -20 -20 -20 -20 -20 -20 -20 -20 -20 -20 -20 -20 -20 -20 -20 -20 -20
-20 -20 -20 -20 -20 -20 -20 -20 -20 -20 -20 -20 -20 -20 -20 -20 -20 -20 -20 -20 -20 -20 -20 -20 6 -13 -10 -20 -20 -20 -20 -20 -20 -20 -20 -20 -20 -20 -20 -20 -20 -20 -20 -20 -20 -20 -20 -20 -20
-20 -20 -20 -20 -20 -20 -20 -20 -20 -20 -20 -20 -20 -20 -20 -20 -20 -20 -20 -20 -20 -20 -20 -20 -20 -20 -16 -20 -20 -20 -20 -20 -20 -20 -20 -20 -20 -20 -20 -20 -20 -20 -20 -20 -20 -20 -20 -20 -20
-20 -20 -20 -20 -20 -20 -20 -20 -20 -20 -20 -20 -20 -20 -20 -20 -20 -20 -20 -20 -20 -20 -20 -20 -20 -20 -20 -20 -20 -20 -20 -20 -20 -20 -20 -20 -20 -11 1 11 -8 -20 -20 -20 -20 -20 -20 -20 -20
-20 -20 -20 -20 -20 -20 -20 -20 -20 -20 -20 -20 -20 -20 -20 -20 -20 -20 -20 -20 -20 -20 -20 -20 -20 -20 -20 -20 -20 10 -20 -20 -20 -20 -20 -20 -9 9 2 -20 -20 -20 -20 -20 -20 -20 -20 -20 -20
-20 -20 -20 -20 -20 -20 -20 -20 -20 -20 -20 -20 -20 -20 -20 -20 -20 -20 -20 -20 -20 -20 -20 -20 -20 -20 -20 -20 -13 -4 -20 -20 -7 0 -5 1 5 -3 -5 -20 -20 -20 -20 -20 -20 -20 -20 -20 -20
-20 -20 -20 -20 -20 -20 -20 -20 -20 -20 -20 -20 -20 -20 -20 -20 -20 -20 -20 -20 -20 -20 -20 -20 -20 -20 -20 -20 -20 -5 -20 -15 -0 -15 6 -13 3 -19 -20 -20 -20 -20 -20 -20 -20 -20 -20 -20 -20
-20 -20 -20 -20 -20 -20 -20 -20 -20 -20 -20 -20 -20 -20 -20 -20 -20 -20 -20 -20 -20 -20 -20 -20 -20 -20 -20 -20 -20 -9 -12 -14 -19 -6 13 -17 -0 -20 -20 -20 -20 -20 -20 -20 -20 -20 -20 -20 -20
-20 -20 -20 -20 -20 -20 -20 -20 -20 -20 -20 -20 -20 -20 -20 -20 -20 -20 -20 -20 -20 -20 -20 -20 -20 -20 -20 -20 -20 -20 -19 14 9 13 11 -7 -4 -20 -20 -20 -20 -20 -20 -20 -20 -20 -20 -20 -20
-20 -19 -17 -20 -20 -20 -20 -20 -20 -20 -20 -20 -20 -20 -20 -20 -20 -20 -20 -20 -20 -20 -20 -20 -20 -20 -20 -8 2 -20 -20 7 4 14 13 2 -18 -20 -20 -20 -20 -20 -20 -20 -20 -20 -20 -20 -20
-12 -20 -20 -20 -20 -20 -20 -20 -20 -20 -20 -20 -20 -20 -20 -20 -20 -20 -20 -20 -20 -20 -20 -20 -18 -20 -20 3 -4 13 -16 5 3 10 7 -14 -20 -20 -20 -20 -20 -20 -20 -20 -20 -20 -20 -20 -20
-20 -20 -20 -20 4 -5 -20 -20 -20 -20 -20 -20 -20 -20 -20 -20 -20 -20 -20 -20 -20 -20 -20 -2 -20 -20 -20 -19 5 -20 -20 -20 -20 4 -6 -20 -20 -20 -20 -20 -20 -20 -20 -20 -20 -20 -20 -20 -20
-20 -20 -20 -20 3 1 -5 12 -20 -20 -20 -20 -20 -20 -20 -20 -20 -20 -20 -20 -20 -20 -20 -20 -20 -20 16 -17 -20 -20 1 -20 -20 -5 -20 -20 -20 -20 -20 -20 -20 -20 -20 -20 -20 -20 -20 -20 -20
-20 -20 -20 -20 -3 5 -20 -20 -20 -20 -20 -20 -20 -20 -20 -20 -20 -20 -20 -20 -20 -20 -20 -20 -20 -20 -20 -20 -20 -19 -13 -20 -20 -20 -20 -20 -20 -20 -20 -20 -20 -20 -20 -20 -20 -20 -20 -20 -20
-20 6 0 12 12 -11 -20 -20 -20 -20 -20 -20 -20 -20 -20 -20 -20 -20 -20 -20 -20 -20 -20 -20 -20 -20 -20 -20 -20 10 -18 -20 -20 -20 -20 -20 -20 -20 -20 -20 -20 -20 -20 -20 -20 -20 -20 -20 -20
-20 -18 -2 -14 -8 -20 -20 -20 -20 -20 -20 -20 -20 -20 -20 -20 -20 -20 -20 -20 -20 -20 -20 -20 -20 -20 -20 -20 0 3 -15 -20 -20 -20 -20 -20 -20 -20 -20 -20 -20 -20 -20 -20 -20 -20 -20 -20 -20
6 1 -8 23 19 16 -19 -20 -20 -20 -20 -20 -20 -20 -20 -20 -20 -20 -20 -20 -20 -20 -20 -20 -20 -20 -20 1 10 2 1 -20 -20 -20 -20 -20 -20 -20 -20 -20 -20 -20 -20 -20 -20 -20 -20 -20 -20
-19 -17 6 13 16 2 -20 -20 -20 -20 -20 -20 -20 -20 -20 -20 -20 -20 -20 -20 -20 -20 -20 -20 -20 -20 3 10 -2 -20 -20 -20 -20 -20 -20 -20 -20 -20 -20 -20 -20 -20 -20 -20 -20 -20 -20 -20 -20
-9 -1 2 3 25 13 -18 -20 -20 -20 -20 -20 -20 -20 -20 -20 -20 -20 -20 -20 -20 -20 -20 -20 -20 -20 -9 -16 -20 -20 -20 -20 -20 -20 -20 -20 -20 -20 -20 -20 -20 -20 -20 -20 -20 -20 -20 -20 -20
-11 1 -1 11 -12 -20 -20 -20 -20 -20 -20 -20 -20 -20 -20 -20 -20 -20 -20 -20 -20 -20 -20 -20 -9 -3 10 -20 -20 -20 -20 -20 -20 -20 -20 -20 -20 -20 -20 -20 -20 -20 -20 -20 -20 -20 -20 -20 -20
Wind_Speed
6 6 2 4 1 2 2 4 2 4 1 2 4 4 3 2 3 2 4 10 1 14 14 14 15 18 16 13 11 10 9 8 6 8 8 7 5 4 6 7 6 5 5 7 7 8 8 7 7
4 3 4 3 2 1 3 3 3 2 5 10 3 2 1 3 3 3 3 7 5 12 12 12 15 17 16 12 12 10 9 9 7 6 6 6 3 6 5 6 7 2 5 6 6 7 8 8 6
2 4 2 2 3 6 4 5 5 3 7 2 4 2 1 2 2 2 4 9 11 10 9 8 15 16 15 15 12 10 9 8 8 7 5 4 5 6 6 8 6 4 5 6 6 6 6 7 7
2 3 4 2 9 5 5 2 2 5 3 2 1 6 3 2 2 2 7 9 10 12 11 11 14 14 15 15 14 11 9 8 7 5 2 1 1 4 6 3 8 7 5 4 4 4 5 6 7
3 2 2 3 7 4 4 4 3 4 4 5 2 4 3 1 2 4 10 9 13 11 9 9 14 13 14 16 14 11 9 8 7 6 4 2 3 6 10 7 9 7 4 1 3 5 6 7 7
3 2 3 8 11 3 4 5 1 3 3 6 3 2 4 0 3 7 9 10 10 12 9 8 10 9 14 14 14 11 9 8 6 6 5 2 5 10 8 9 9 7 3 3 4 6 8 7 6
5 3 5 5 6 5 5 4 4 6 4 6 1 2 3 1 4 8 8 7 9 10 10 8 8 9 11 12 13 10 9 8 7 6 4 2 6 8 10 6 7 5 2 4 5 8 7 6 7
4 3 4 6 10 10 4 5 3 6 5 2 3 4 4 1 7 9 7 6 6 8 9 8 7 8 9 10 12 10 8 8 8 5 5 4 4 5 7 7 6 5 4 5 6 8 9 9 10
3 2 7 8 8 6 2 2 2 1 3 3 2 3 2 2 7 7 6 5 5 6 9 8 7 6 7 9 9 9 9 7 9 7 7 4 2 2 2 5 5 5 4 6 8 10 11 10 9
4 5 8 6 6 4 3 4 3 2 3 5 5 4 3 1 5 8 9 11 11 10 11 9 9 9 7 7 8 7 7 6 6 4 4 3 3 1 2 3 4 3 6 7 10 11 10 8 5
3 8 3 3 3 2 3 4 4 4 7 7 6 4 7 1 5 9 10 10 13 12 10 10 7 7 8 8 5 4 4 5 4 6 4 4 3 2 2 1 2 2 6 4 5 6 5 7 5
3 6 4 3 2 1 3 2 5 5 8 5 4 4 5 10 6 9 11 11 9 11 13 12 10 8 9 7 6 6 5 5 4 5 6 4 3 2 2 2 4 5 4 4 5 4 5 6 6
3 2 3 4 6 5 5 11 11 12 9 10 12 7 12 12 11 8 9 7 8 10 13 14 13 10 9 10 7 7 7 6 6 6 6 4 3 3 4 5 5 4 4 5 4 4 4 6 6
0 2 5 6 6 4 9 15 6 9 11 12 10 12 10 10 12 8 8 11 12 11 13 14 15 14 12 11 11 8 7 7 6 5 6 6 4 5 5 5 4 5 5 4 4 5 4 5 5
1 4 7 7 7 7 4 14 15 19 12 15 14 12 11 12 11 12 12 10 10 10 9 15 15 15 14 13 11 8 7 7 6 5 7 8 7 7 6 6 5 5 4 5 5 4 4 5 6
1 2 3 3 3 6 9 13 7 3 10 16 17 12 12 14 14 12 12 10 10 8 9 9 12 16 15 12 9 7 6 5 5 6 6 8 9 8 7 5 6 4 4 4 4 5 4 5 7
2 4 5 6 4 2 11 5 5 10 4 9 10 10 11 12 12 11 11 10 11 10 7 8 13 16 16 13 9 7 8 5 5 6 6 8 9 10 8 6 6 5 5 6 5 6 5 7 8
4 4 5 5 2 3 11 17 15 12 13 16 12 11 10 11 14 12 7 8 10 9 7 9 11 14 15 11 10 7 7 6 5 5 6 9 8 12 9 7 7 5 6 6 5 6 5 5 7
0 3 9 9 11 11 15 20 17 15 12 14 14 15 14 13 12 11 9 8 7 7 7 12 15 16 13 11 11 8 6 6 5 5 7 8 8 11 9 7 7 6 7 7 6 2 5 7 9
10 14 15 10 8 11 12 26 16 16 19 18 19 17 16 14 12 11 9 7 9 7 9 11 13 16 12 10 8 7 8 5 5 5 5 7 10 10 9 9 7 7 6 6 6 6 2 4 7
13 16 14 17 9 13 16 28 20 18 24 20 21 21 21 19 18 17 11 12 8 10 12 11 14 14 13 13 12 10 10 7 4 4 4 6 10 10 11 10 8 7 5 5 6 5 5 4 4
14 7 11 13 7 9 2 14 7 5 10 9 12 16 18 17 17 18 13 10 13 12 11 12 14 16 13 14 15 21 12 12 6 6 6 8 9 10 11 10 8 7 5 6 5 4 4 3 5
6 4 7 8 8 7 12 9 6 2 4 9 10 14 14 15 16 18 16 15 12 12 12 12 14 14 14 13 14 12 11 7 8 8 12 10 9 10 10 9 8 7 5 5 6 5 5 4 2
2 2 4 1 4 10 11 11 17 8 10 3 6 11 9 13 11 13 11 7 11 10 12 12 14 14 14 13 15 16 17 15 11 11 9 8 7 7 8 8 7 6 6 5 4 4 4 4 3
7 4 3 6 8 9 8 12 20 10 17 16 17 14 10 8 8 9 11 12 14 16 15 13 15 14 13 15 13 14 16 18 17 14 10 11 8 6 7 7 6 5 5 5 4 4 4 3 2
12 9 5 6 6 4 3 10 10 12 13 13 14 14 12 9 7 9 12 13 14 15 16 16 16 15 14 12 11 11 15 11 10 11 10 8 8 7 8 7 6 6 5 4 4 3 2 2 1
5 11 11 5 4 3 5 8 12 13 15 11 12 10 13 12 9 11 10 11 14 15 16 16 16 14 12 11 10 11 12 14 12 12 10 8 10 8 8 7 7 6 5 4 3 2 2 1 2
8 1 4 5 5 5 7 8 15 9 14 6 6 10 14 13 9 9 10 12 12 13 13 13 14 14 11 11 11 12 13 13 13 11 12 11 10 10 9 7 6 5 4 4 3 2 2 3 3
7 6 6 2 4 4 4 8 5 9 3 3 7 11 14 12 11 10 11 11 11 12 14 13 13 14 12 12 12 14 13 13 12 12 11 10 10 9 8 7 6 5 4 3 3 3 2 4 5
15 13 15 8 6 5 2 15 13 14 4 5 10 12 13 9 8 10 13 15 14 13 13 13 12 13 11 12 13 13 13 13 13 12 11 10 10 8 8 7 5 4 4 3 2 3 3 4 5
Wind_Direction
331 335 56 43 41 55 248 257 287 311 313 264 289 222 218 198 193 236 348 192 161 157 167 177 168 154 151 150 147 144 139 122 116 122 112 103 153 148 132 137 103 80 52 42 50 57 42 38 32
337 5 46 91 126 210 254 256 225 235 294 310 280 221 294 234 134 290 117 191 174 159 166 172 157 149 151 156 152 150 146 140 125 128 125 176 145 149 150 147 124 116 54 48 51 57 49 48 42
110 33 76 112 149 217 212 211 201 283 304 281 314 293 264 320 3 258 108 183 144 153 163 173 152 148 154 153 153 155 150 144 148 156 169 202 187 186 159 155 150 113 81 55 52 47 32 18 9
62 36 75 192 228 232 216 229 231 332 309 19 349 290 284 225 185 308 112 161 148 144 162 176 158 153 157 155 156 160 157 154 156 162 189 212 222 244 205 158 118 120 104 76 47 21 8 3 354
44 78 167 231 247 249 248 255 260 302 293 277 8 287 259 204 11 120 149 161 144 149 161 175 157 160 162 158 159 157 159 157 159 178 202 229 35 347 245 165 135 140 127 72 3 344 348 346 345
87 105 153 232 240 242 254 249 248 245 264 289 219 253 256 99 181 152 153 151 144 154 159 174 159 156 163 160 152 154 160 161 160 178 199 244 23 23 29 154 147 145 143 334 354 333 339 343 339
136 140 203 218 247 264 239 198 233 245 261 267 212 212 267 251 157 146 141 143 152 158 154 177 176 171 170 155 144 153 161 163 161 175 184 60 44 36 31 67 135 131 75 354 329 331 328 338 355
122 151 173 215 234 259 226 191 212 188 260 300 197 220 255 44 149 140 136 145 158 162 166 182 178 172 174 161 145 155 165 160 149 143 107 89 52 37 32 35 37 47 19 340 337 335 6 32 32
137 162 227 223 181 222 220 197 270 207 267 307 262 259 314 33 131 134 140 157 174 181 181 188 189 170 168 158 158 159 164 157 132 121 108 92 58 37 31 25 15 9 360 353 5 30 46 49 49
187 197 224 190 186 223 257 221 245 298 276 284 313 293 1 65 189 175 183 183 191 193 199 196 187 186 181 159 166 160 160 143 135 127 118 106 99 57 29 25 20 9 12 33 58 55 48 42 26
190 238 189 200 191 185 270 281 222 214 251 228 256 285 322 282 222 222 210 207 196 192 196 199 182 177 184 175 160 154 166 152 145 144 138 125 114 98 90 92 57 42 54 60 55 43 34 32 29
216 253 242 222 234 251 216 230 274 236 244 244 227 299 299 303 272 235 234 216 197 192 197 200 181 172 190 178 171 164 170 165 161 160 155 157 135 125 91 75 71 70 62 70 49 46 34 25 27
212 271 268 310 312 263 246 239 249 245 245 268 284 277 275 276 270 258 243 235 209 214 202 200 193 182 183 179 174 171 174 173 170 164 166 155 157 128 107 89 80 77 69 55 54 48 33 20 9
270 279 274 282 261 265 260 264 223 242 227 245 245 258 260 258 257 272 247 237 214 217 211 199 199 194 182 180 179 179 172 164 168 167 168 171 143 124 108 98 82 76 62 59 54 44 31 20 360
255 305 302 235 233 250 265 265 244 250 225 239 239 241 251 252 263 247 249 246 229 225 215 206 197 190 184 182 179 174 168 161 167 166 163 137 126 118 117 111 88 74 67 70 53 45 36 14 354
268 231 263 279 230 242 196 249 268 269 226 246 244 230 242 257 259 253 255 244 257 250 221 207 194 186 181 176 165 162 158 139 132 134 126 128 119 121 114 99 89 86 76 64 57 32 25 5 357
236 255 231 306 208 251 205 268 272 271 294 265 257 254 248 258 265 267 258 251 258 260 247 201 191 181 169 151 139 129 125 120 120 125 123 124 118 117 113 106 104 91 74 58 43 48 27 9 350
197 220 240 221 342 344 286 277 280 273 281 284 287 278 260 256 259 266 259 255 260 259 234 193 179 167 148 129 119 100 100 98 103 111 113 115 123 119 113 105 93 81 70 52 49 52 41 16 344
187 250 268 273 291 308 280 277 274 271 259 266 272 278 274 257 258 262 247 243 245 230 200 183 173 161 146 140 137 124 126 118 106 98 117 116 125 116 111 100 92 80 74 64 41 44 27 25 0
247 262 268 277 251 272 288 282 275 264 258 251 255 256 257 263 262 263 252 223 213 207 186 187 179 165 157 149 143 133 133 102 96 100 101 113 120 113 107 105 99 92 92 76 57 41 31 35 22
240 250 266 270 295 280 290 280 265 249 249 247 246 246 247 244 249 254 240 222 204 199 187 183 166 162 151 137 119 108 93 102 101 109 109 118 114 110 107 103 100 95 95 85 67 53 45 32 44
248 200 239 255 266 267 168 291 252 263 265 256 257 243 245 239 232 242 237 213 207 202 174 164 158 158 146 145 146 144 150 157 152 137 131 117 110 105 102 102 104 104 98 91 85 70 63 63 31
243 197 216 223 240 276 242 264 295 300 254 262 248 241 235 235 230 234 228 216 205 169 165 155 158 154 155 158 159 140 140 131 122 123 124 117 107 101 102 105 108 103 97 94 89 79 70 61 59
131 287 279 230 229 246 232 214 275 245 246 275 285 267 252 246 235 240 233 197 159 148 153 158 156 158 158 157 159 144 139 135 134 137 133 131 117 108 103 106 104 102 102 92 85 85 75 73 76
185 173 233 220 207 237 193 200 249 287 298 262 279 273 262 257 247 236 191 179 164 164 162 159 160 160 160 159 154 147 145 147 147 146 147 143 131 124 124 119 115 105 101 93 89 70 64 63 41
186 186 217 229 224 234 177 228 253 227 253 249 247 260 266 256 227 232 213 186 174 164 162 161 160 156 156 151 145 146 141 142 141 145 146 136 129 130 129 121 115 108 99 88 68 59 55 45 50
174 212 220 274 246 244 238 269 284 254 258 271 281 284 275 250 230 224 191 188 168 162 165 160 155 150 148 142 132 132 134 136 136 136 130 128 124 125 124 123 112 101 91 76 65 56 49 29 343
194 27 187 191 233 232 247 257 244 292 271 264 314 285 297 270 215 199 188 168 167 158 148 149 146 143 139 138 142 133 129 124 126 130 128 126 122 122 125 116 109 99 86 72 59 43 36 349 339
192 203 212 271 225 229 271 250 221 235 225 289 286 319 318 296 228 198 164 151 145 141 143 140 134 129 131 132 125 124 123 124 125 124 126 124 123 123 117 115 107 98 90 70 52 19 350 323 315
212 214 217 229 215 229 218 261 305 279 11 311 325 326 313 301 222 166 148 138 142 141 139 134 125 122 127 122 122 122 122 123 122 124 124 125 118 113 114 110 104 98 78 60 25 332 308 317 329